Regional Weather Roundup
Issued by NWS Jackson, KY

Home | Current Version | Previous Version | Text Only | Print | Product List | Glossary Off
Versions: 1 2 3 4 5 6 7 8 9 10 11 12 13 14 15 16 17 18 19 20 21 22 23 24 25 26 27 28 29 30 31 32 33 34 35 36 37 38 39 40 41 42 43 44 45 46 47 48 49 50

000
ASUS43 KJKL 272011
RWRJKL

EAST KENTUCKY HOURLY WEATHER ROUNDUP
NATIONAL WEATHER SERVICE JACKSON KY
300 PM EST TUE JAN 27 2015

NOTE: "FAIR" INDICATES FEW OR NO CLOUDS BELOW 12,000 FEET WITH
NO SIGNIFICANT WEATHER AND/OR OBSTRUCTIONS TO VISIBILITY.

* THESE REPORTS ARE NOT UNDER NWS QUALITY CONTROL AND MAY NOT
  REPORT WEATHER SUCH AS PRECIPITATION AND FOG.

KYZ079-080-083-085-087-088-110-112-115-119-120-272100
...EASTERN KENTUCKY...

CITY           SKY/WX    TMP DP  RH WIND       PRES   REMARKS
JACKSON        MOSUNNY   35   8  32 MISG      29.98S
LONDON         CLOUDY    33  21  61 N7        30.01S WCI  27
SOMERSET*      CLOUDY    32  25  74 N5        30.06S WCI  27
MONTICELLO*    CLOUDY    32  28  85 N6        30.08R WCI  26
MIDDLESBORO*   CLOUDY    32  26  77 NW9       30.02R WCI  24
HARLAN APT*    CLOUDY    32  21  64 W9        29.98R WCI  24
BLACK MTN*       N/A     19  19 100 NE1         N/A
PIKEVILLE APT* MOSUNNY   30  14  51 NW9       29.97R WCI  22
BIG SANDY*     CLOUDY    30  15  52 NW6       29.99S WCI  24
MOREHEAD APT*  PTCLDY    30  16  55 NW7G13    30.06R WCI  23
$$

KYZ035-036-041-042-044-050-067-078-099-272100
...CENTRAL KENTUCKY...

CITY           SKY/WX    TMP DP  RH WIND       PRES   REMARKS
MT STERLING*   SUNNY     32  12  43 N8        30.06R WCI  25
FLEMING/MASON* SUNNY     26  13  55 N8        30.08R WCI  18
DANVILLE*      PTSUNNY   32  25  74 N9        30.06R WCI  24
RICHMOND*      SUNNY     32  16  51 N8        30.03S WCI  25
LEXINGTON      SUNNY     32  18  56 NW8       30.06R WCI  25
FRANKFORT      SUNNY     34  15  46 NE6       30.06R WCI  29
$$

KYZ091>093-OHZ055-061-077-WVZ005-015-034-035-042-272100
...SOUTHERN OHIO/WEST VIRGINIA...

CITY           SKY/WX    TMP DP  RH WIND       PRES   REMARKS
COVINGTON      SUNNY     31  13  47 N13       30.08R WCI  21
COLUMBUS       PTSUNNY   23  13  65 N7        30.06R WCI  15
DAYTON         MOSUNNY   24  12  60 N9        30.10R WCI  14
WILMINGTON     PTSUNNY   23  12  62 N7        30.07R WCI  15
HUNTINGTON     PTSUNNY   26  16  65 N6        30.03S WCI  19
CHARLESTON     FLURRIES  24  15  68 W6        30.01S WCI  17
PINEVILLE*     SUNNY     35   8  33 MISG      29.95R
BECKLEY        SUNNY     25  12  58 NW13G20   29.85R WCI  14
BLUEFIELD      SUNNY     31   5  33 W10G18    29.82R WCI  22
$$

VAZ002-007-008-TNZ017-027-036-066-071-272100
...SOUTHWEST VIRGINIA/EAST TENNESSEE...

CITY           SKY/WX    TMP DP  RH WIND       PRES   REMARKS
WISE*          PTSUNNY   30  18  59 NW12      29.90R WCI  21
JONESVILLE*    CLOUDY    32  23  69 NW8       29.99R WCI  25
ABINGDON*      MOSUNNY   33  16  48 NW9G16    29.89S WCI  25
BRISTOL        CLOUDY    34  22  61 NW10      29.93S WCI  26
KNOXVILLE      CLOUDY    35  29  78 N5        30.01S WCI  31
OAK RIDGE      CLOUDY    37  28  70 CALM      30.02S
CROSSVILLE     CLOUDY    33  28  81 W9        29.99R WCI  25
NASHVILLE      CLOUDY    39  31  72 NW9       30.10R WCI  33
$$

...KEY TO REMARKS...
VSB - VISIBILITY IN MILES
WCI - WIND CHILL INDEX
HX  - HEAT INDEX

$$


USA.gov is the U.S. government's official web portal to all federal, state and local government web resources and services.